This demonstration page uses our WeatherBlox Daily Observations layout. Learn more.

Left ArrowRight Arrow

39.92423, -83.80882

Hourly Observations for September 21, 2015

Temp ( °F °C ) Dew Point ( °F °C ) Humidity (%) Winds ( mph kmh ) Pressure ( in mb ) Visibility ( mi km ) Precip ( " mm )
12:56 am 00:56 Mostly Cloudy 54 12.2 50 10 87 87 NE 5 7 30.12 1020 10 16.0934 0 0
1:56 am 01:56 Cloudy 56 13.3 51 10.5 83 83 NE 5 7 30.11 1020 10 16.0934 0 0
2:56 am 02:56 Mostly Cloudy 55 12.7 51 10.5 87 87 NE 7 11 30.1 1019 10 16.0934 0 0
3:56 am 03:56 Cloudy 56 13.3 51 10.5 83 83 NNE 6 9 30.09 1019 10 16.0934 0 0
4:56 am 04:56 Cloudy 54 12.2 50 10 87 87 NE 6 9 30.09 1019 10 16.0934 0 0
5:56 am 05:56 Mostly Clear 51 10.5 49 9.4 93 93 NNE 5 7 30.1 1019 10 16.0934 0 0
6:56 am 06:56 Clear 49 9.4 48 8.8 96 96 NNE 5 7 30.11 1020 10 16.0934 0 0
7:56 am 07:56 Sunny 49 9.4 49 9.4 100 100 Calm 30.13 1020 10 16.0934 0 0
8:56 am 08:56 Sunny 57 13.8 52 11.1 84 84 NNE 5 7 30.13 1020 10 16.0934 0 0
9:56 am 09:56 Sunny 63 17.2 51 10.5 65 65 NE 5 7 30.13 1020 10 16.0934 0 0
10:56 am 10:56 Sunny 68 20 50 10 53 53 NNE 9 15 30.14 1021 10 16.0934 0 0
11:56 am 11:56 Sunny 72 22.2 51 10.5 48 48 ENE 10 17 30.13 1020 10 16.0934 0 0
12:56 pm 12:56 Sunny 74 23.3 50 10 43 43 NNE 9 15 30.12 1020 10 16.0934 0 0
1:56 pm 13:56 Sunny 76 24.4 50 10 40 40 N 8 13 30.1 1019 10 16.0934 0 0
2:56 pm 14:56 Sunny 76 24.4 50 10 40 40 N 10 17 30.09 1019 10 16.0934 0 0
3:56 pm 15:56 Sunny 77 25 49 9.4 37 37 NE 8 13 30.08 1019 10 16.0934 0 0
4:56 pm 16:56 Sunny 77 25 49 9.4 37 37 NE 9 15 30.08 1019 10 16.0934 0 0
5:56 pm 17:56 Sunny 76 24.4 49 9.4 39 39 NNW 3 6 30.09 1019 8 12.87472 0 0
6:56 pm 18:56 Sunny 73 22.7 52 11.1 48 48 NE 7 11 30.1 1019 10 16.0934 0 0
7:56 pm 19:56 Clear 65 18.3 50 10 59 59 NNE 6 9 30.11 1020 10 16.0934 0 0
8:56 pm 20:56 Clear 62 16.6 49 9.4 63 63 Calm 30.12 1020 10 16.0934 0 0
9:56 pm 21:56 Clear 57 13.8 47 8.3 70 70 Calm 30.13 1020 10 16.0934 0 0
10:56 pm 22:56 Clear 56 13.3 47 8.3 72 72 NNE 7 11 30.14 1021 10 16.0934 0 0
11:56 pm 23:56 Clear 54 12.2 48 8.8 80 80 NE 6 9 30.14 1021 10 16.0934 0 0

Powered by AerisWeather